Weather History for K40J - September, 2013

Change the Weather History Date:

Wednesday, September 18, 2013

  Actual Average (KCTY) Record (KCTY)
Temperature  
Mean Temperature 78 °F 78 °F  
Max Temperature 87 °F 89 °F 97 °F (2005)
Min Temperature 69 °F 68 °F 60 °F (2003)
Degree Days  
Heating Degree Days 0 0  
Month to date heating degree days 0  
Since 1 July heating degree days 0  
Cooling Degree Days 12 13  
Month to date cooling degree days 260  
Year to date cooling degree days 2198  
Growing Degree Days 28 (Base 50)    
Moisture  
Dew Point 68 °F    
Average Humidity 76    
Maximum Humidity 94    
Minimum Humidity 57    
Precipitation  
Precipitation 0.00 in 0.14 in 1.52 in (2012)
Month to date precipitation 3.09  
Year to date precipitation 38.46  
Sea Level Pressure  
Sea Level Pressure 30.08 in    
Wind  
Wind Speed 6 mph (ENE)    
Max Wind Speed 13 mph    
Max Gust Speed 23 mph    
Visibility 10 miles    
Events Rain    
T = Trace of Precipitation, MM = Missing Value Source: NWS Daily Summary

Daily Weather History Graph

Daily Weather History Graph

Search for Another Location

Airport or City:

Trip Planner

Search our weather history database for the weather conditions in past years. The results will help you decide how hot, cold, wet, or windy it might be!

Date:

Astronomy

Sep. 18, 2013 Rise Set
Actual Time 7:20 AM EDT 7:35 PM EDT
Civil Twilight 6:56 AM EDT 7:59 PM EDT
Nautical Twilight 6:28 AM EDT 8:27 PM EDT
Astronomical Twilight 6:00 AM EDT 8:55 PM EDT
Moon 6:59 PM EDT (9/18) 6:23 AM EDT (9/18)
Length of Visible Light 13h 02m
Length of Day
12h 14m
Waxing Gibbous, 99% of the Moon is Illuminated
Sep 18
Waxing Gibbous
Sep 19
Full
Sep 26
Last Quarter
Oct 4
New
Oct 11
First Quarter

Hourly Weather History & Observations

Time (EDT) Temp. Heat Index Dew Point Humidity Pressure Visibility Wind Dir Wind Speed Gust Speed Precip Events Conditions
12:15 AM 73.4 °F - 68.0 °F 83% 30.08 in 10.0 mi NE 5.8 mph - N/A   Clear
12:35 AM 73.4 °F - 68.0 °F 83% 30.08 in 10.0 mi NE 4.6 mph - N/A   Clear
12:53 AM 75.0 °F - 69.1 °F 82% 30.07 in - NE 4.6 mph - N/A   Unknown
12:55 AM 71.6 °F - 68.0 °F 88% 30.08 in 10.0 mi ENE 4.6 mph - N/A   Clear
1:15 AM 71.6 °F - 68.0 °F 88% 30.08 in 10.0 mi NE 4.6 mph - N/A   Clear
1:35 AM 71.6 °F - 68.0 °F 88% 30.08 in 10.0 mi NE 3.5 mph - N/A   Scattered Clouds
1:53 AM 73.9 °F - 69.1 °F 85% 30.07 in - NE 6.9 mph - N/A   Unknown
1:55 AM 71.6 °F - 69.8 °F 94% 30.08 in 10.0 mi NE 3.5 mph - N/A   Scattered Clouds
2:15 AM 71.6 °F - 69.8 °F 94% 30.08 in 10.0 mi NE 5.8 mph - N/A   Clear
2:35 AM 71.6 °F - 69.8 °F 94% 30.08 in 10.0 mi NE 3.5 mph - N/A   Clear
2:53 AM 73.9 °F - 69.1 °F 85% 30.05 in - NE 4.6 mph - N/A   Unknown
2:55 AM 71.6 °F - 69.8 °F 94% 30.07 in 10.0 mi NE 4.6 mph - N/A   Clear
3:15 AM 71.6 °F - 69.8 °F 94% 30.06 in 10.0 mi NE 4.6 mph - N/A   Scattered Clouds
3:35 AM 71.6 °F - 69.8 °F 94% 30.06 in 10.0 mi ENE 3.5 mph - N/A   Scattered Clouds
3:53 AM 73.9 °F - 69.1 °F 85% 30.05 in - NE 4.6 mph - N/A   Unknown
3:55 AM 71.6 °F - 69.8 °F 94% 30.06 in 10.0 mi NE 4.6 mph - N/A   Clear
4:15 AM 71.6 °F - 69.8 °F 94% 30.06 in 10.0 mi NNE 4.6 mph - N/A   Clear
4:35 AM 71.6 °F - 69.8 °F 94% 30.06 in 10.0 mi NE 3.5 mph - N/A   Clear
4:53 AM 73.0 °F - 69.1 °F 87% 30.05 in - NNE 4.6 mph - N/A   Unknown
4:55 AM 71.6 °F - 68.0 °F 88% 30.06 in 7.0 mi NE 3.5 mph - N/A   Clear
5:15 AM 71.6 °F - 68.0 °F 88% 30.06 in 7.0 mi ENE 3.5 mph - N/A   Clear
5:35 AM 71.6 °F - 68.0 °F 88% 30.06 in 7.0 mi NNE 4.6 mph - N/A   Clear
5:53 AM 73.0 °F - 69.1 °F 87% 30.05 in - NE 4.6 mph - N/A   Unknown
5:55 AM 71.6 °F - 68.0 °F 88% 30.07 in 7.0 mi NE 4.6 mph - N/A   Clear
6:15 AM 71.6 °F - 68.0 °F 88% 30.07 in 7.0 mi NE 4.6 mph - N/A   Clear
6:35 AM 69.8 °F - 68.0 °F 94% 30.06 in 10.0 mi NE 5.8 mph - N/A   Clear
6:53 AM 73.0 °F - 68.0 °F 84% 30.06 in - NNE 5.8 mph - N/A   Unknown
6:55 AM 69.8 °F - 68.0 °F 94% 30.07 in 10.0 mi NE 5.8 mph - N/A   Clear
7:15 AM 69.8 °F - 68.0 °F 94% 30.07 in 10.0 mi NE 4.6 mph - N/A   Clear
7:35 AM 69.8 °F - 68.0 °F 94% 30.08 in 10.0 mi NE 5.8 mph - N/A   Clear
7:53 AM 72.0 °F - 68.0 °F 87% 30.06 in - NE 5.8 mph - N/A   Unknown
7:55 AM 69.8 °F - 68.0 °F 94% 30.08 in 10.0 mi NE 4.6 mph - N/A   Clear
8:15 AM 71.6 °F - 68.0 °F 88% 30.08 in 10.0 mi NE 4.6 mph - N/A   Clear
8:35 AM 71.6 °F - 68.0 °F 88% 30.09 in 10.0 mi ENE 3.5 mph - N/A   Clear
8:53 AM 75.9 °F - 68.0 °F 76% 30.08 in - NE 8.1 mph - N/A   Unknown
8:55 AM 73.4 °F - 68.0 °F 83% 30.10 in 7.0 mi NE 4.6 mph - N/A   Scattered Clouds
9:15 AM 73.4 °F - 68.0 °F 83% 30.10 in 10.0 mi NE 5.8 mph - N/A   Mostly Cloudy
9:35 AM 77.0 °F - 69.8 °F 78% 30.10 in 10.0 mi ENE 4.6 mph - N/A   Scattered Clouds
9:53 AM 78.1 °F - 69.1 °F 74% 30.09 in - ENE 8.1 mph - N/A   Unknown
9:55 AM 77.0 °F - 69.8 °F 78% 30.10 in 10.0 mi NE 8.1 mph - N/A   Mostly Cloudy
10:15 AM 77.0 °F - 69.8 °F 78% 30.11 in 10.0 mi ENE 6.9 mph - N/A   Overcast
10:35 AM 77.0 °F - 69.8 °F 78% 30.11 in 10.0 mi ENE 8.1 mph - N/A   Mostly Cloudy
10:53 AM 81.0 °F 84.4 °F 70.0 °F 69% 30.09 in - ENE 8.1 mph 16.1 mph N/A   Unknown
10:55 AM 78.8 °F - 69.8 °F 74% 30.11 in 10.0 mi ENE 6.9 mph 17.3 mph N/A   Mostly Cloudy
11:15 AM 80.6 °F 83.9 °F 69.8 °F 70% 30.11 in 10.0 mi East 9.2 mph - N/A   Scattered Clouds
11:35 AM 78.8 °F - 69.8 °F 74% 30.11 in 10.0 mi NE 11.5 mph - N/A   Mostly Cloudy
11:53 AM 84.0 °F 89.0 °F 71.1 °F 65% 30.10 in - NNE 12.7 mph 17.3 mph N/A   Unknown
11:55 AM 80.6 °F 83.9 °F 69.8 °F 70% 30.11 in 10.0 mi NE 10.4 mph 17.3 mph N/A   Mostly Cloudy
12:15 PM 80.6 °F 83.9 °F 69.8 °F 70% 30.11 in 10.0 mi ENE 8.1 mph 16.1 mph N/A   Mostly Cloudy
12:35 PM 80.6 °F 83.9 °F 69.8 °F 70% 30.11 in 10.0 mi ENE 6.9 mph 18.4 mph N/A   Mostly Cloudy
12:53 PM 84.0 °F 88.4 °F 70.0 °F 63% 30.09 in - ENE 10.4 mph - N/A   Unknown
12:55 PM 80.6 °F 83.9 °F 69.8 °F 70% 30.10 in 10.0 mi East 6.9 mph - N/A   Overcast
1:15 PM 82.4 °F 85.4 °F 68.0 °F 62% 30.09 in 10.0 mi ENE 6.9 mph - N/A   Overcast
1:35 PM 82.4 °F 85.4 °F 68.0 °F 62% 30.09 in 10.0 mi East 9.2 mph 17.3 mph N/A   Overcast
1:53 PM 84.9 °F 89.4 °F 70.0 °F 61% 30.07 in - ENE 8.1 mph - N/A   Unknown
1:55 PM 82.4 °F 86.3 °F 69.8 °F 66% 30.08 in 10.0 mi ENE 5.8 mph - N/A   Overcast
2:15 PM 78.8 °F - 69.8 °F 74% 30.09 in 10.0 mi NE 6.9 mph 16.1 mph N/A Rain Light Rain
2:35 PM 80.6 °F 84.6 °F 71.6 °F 74% 30.08 in 10.0 mi ENE 9.2 mph - N/A   Mostly Cloudy
2:53 PM 84.9 °F 89.4 °F 70.0 °F 61% 30.06 in - NE 12.7 mph 23.0 mph N/A   Unknown
2:55 PM 82.4 °F 86.3 °F 69.8 °F 66% 30.07 in 10.0 mi ENE 10.4 mph 20.7 mph N/A   Mostly Cloudy
3:15 PM 82.4 °F 86.3 °F 69.8 °F 66% 30.07 in 10.0 mi NE 11.5 mph 18.4 mph N/A   Mostly Cloudy
3:35 PM 82.4 °F 85.4 °F 68.0 °F 62% 30.06 in 10.0 mi East 10.4 mph 19.6 mph N/A   Overcast
3:53 PM 86.0 °F 90.1 °F 69.1 °F 57% 30.04 in - NE 11.5 mph 18.4 mph N/A   Unknown
3:55 PM 84.2 °F 87.3 °F 68.0 °F 58% 30.05 in 10.0 mi ENE 12.7 mph 20.7 mph N/A   Scattered Clouds
4:15 PM 84.2 °F 87.3 °F 68.0 °F 58% 30.04 in 10.0 mi East 9.2 mph 17.3 mph N/A   Scattered Clouds
4:35 PM 84.2 °F 87.3 °F 68.0 °F 58% 30.04 in 10.0 mi East 9.2 mph 16.1 mph N/A   Scattered Clouds
4:53 PM 84.0 °F 87.8 °F 69.1 °F 61% 30.03 in - ENE 8.1 mph - N/A   Unknown
4:55 PM 82.4 °F 85.4 °F 68.0 °F 62% 30.05 in 10.0 mi East 6.9 mph 17.3 mph N/A   Mostly Cloudy
5:15 PM 82.4 °F 85.4 °F 68.0 °F 62% 30.05 in 10.0 mi NE 5.8 mph - N/A   Mostly Cloudy
5:35 PM 82.4 °F 85.4 °F 68.0 °F 62% 30.05 in 10.0 mi ENE 9.2 mph - N/A   Scattered Clouds
5:53 PM 84.9 °F 88.8 °F 69.1 °F 59% 30.03 in - ENE 8.1 mph - N/A   Unknown
5:55 PM 82.4 °F 85.4 °F 68.0 °F 62% 30.05 in 10.0 mi ENE 9.2 mph - N/A   Scattered Clouds
6:15 PM 82.4 °F 85.4 °F 68.0 °F 62% 30.05 in 10.0 mi ENE 8.1 mph - N/A   Mostly Cloudy
6:35 PM 80.6 °F 83.2 °F 68.0 °F 65% 30.05 in 10.0 mi ENE 10.4 mph - N/A   Mostly Cloudy
6:53 PM 82.0 °F 84.9 °F 68.0 °F 62% 30.04 in - ENE 6.9 mph - N/A   Unknown
6:55 PM 80.6 °F 83.2 °F 68.0 °F 65% 30.05 in 10.0 mi NE 5.8 mph - N/A   Scattered Clouds
7:15 PM 78.8 °F - 68.0 °F 69% 30.05 in 10.0 mi ENE 5.8 mph - N/A   Clear
7:35 PM 78.8 °F - 68.0 °F 69% 30.06 in 10.0 mi NE 3.5 mph - N/A   Scattered Clouds
7:53 PM 80.1 °F 82.7 °F 68.0 °F 67% 30.05 in - ENE 4.6 mph - N/A   Unknown
7:55 PM 77.0 °F - 68.0 °F 74% 30.07 in 10.0 mi ENE 4.6 mph - N/A   Mostly Cloudy
8:15 PM 77.0 °F - 66.2 °F 69% 30.07 in 10.0 mi ENE 4.6 mph - N/A   Overcast
8:35 PM 77.0 °F - 66.2 °F 69% 30.08 in 10.0 mi East 3.5 mph - N/A   Scattered Clouds
8:53 PM 79.0 °F - 66.9 °F 66% 30.07 in - ENE 6.9 mph - N/A   Unknown
8:55 PM 77.0 °F - 66.2 °F 69% 30.08 in 10.0 mi East 4.6 mph - N/A   Scattered Clouds
9:15 PM 77.0 °F - 66.2 °F 69% 30.09 in 10.0 mi East 6.9 mph - N/A   Mostly Cloudy
9:35 PM 77.0 °F - 64.4 °F 65% 30.10 in 10.0 mi ENE 5.8 mph - N/A   Overcast
9:53 PM 78.1 °F - 66.0 °F 66% 30.08 in - ENE 8.1 mph - N/A   Unknown
9:55 PM 75.2 °F - 64.4 °F 69% 30.10 in 10.0 mi ENE 5.8 mph - N/A   Scattered Clouds
10:15 PM 75.2 °F - 64.4 °F 69% 30.10 in 10.0 mi East 6.9 mph - N/A   Mostly Cloudy
10:35 PM 73.4 °F - 64.4 °F 73% 30.10 in 10.0 mi East 5.8 mph - N/A   Mostly Cloudy
10:53 PM 75.0 °F - 64.9 °F 71% 30.09 in - Variable 3.5 mph - N/A   Unknown
10:55 PM 73.4 °F - 64.4 °F 73% 30.10 in 10.0 mi ENE 3.5 mph - N/A   Mostly Cloudy
11:15 PM 73.4 °F - 64.4 °F 73% 30.11 in 10.0 mi East 3.5 mph - N/A   Scattered Clouds
11:35 PM 71.6 °F - 64.4 °F 78% 30.11 in 10.0 mi East 3.5 mph - N/A   Scattered Clouds
11:53 PM 73.0 °F - 64.0 °F 73% 30.09 in - Calm Calm - N/A   Unknown
11:55 PM 71.6 °F - 64.4 °F 78% 30.11 in 10.0 mi Calm Calm - N/A   Scattered Clouds